Tyler Pounds Regional Airport Tyler US
ICAO: KTYR
IATA: TYR
Category: Medium
Scheduled Services: Yes

Elevation: 544 ft
TransAlt. 18000 ft.

Airport Communications:
LONGVIEW APP/DEP:128.75
ATIS:126.25
CTAF:120.1
GND:121.9
FORT WORTH RDO:122.3
TWR:120.1
UNICOM:122.95

KTYR Zoom In..

If you have problems with the map follow the link
https://www.worldairports.se/pages/airport.php?
ICAO=KTYR

Runways:

(A) RW 04 length 7802 ft width 150 ft
---- / hdg 42

(B) RW 13 length 5200 ft width 150 ft
ILS 109.90 / hdg 132

(C) RW 17 length 4832 ft width 150 ft
---- / hdg 177

(D) RW 22 length 7802 ft width 150 ft
---- / hdg 222

(E) RW 31 length 5200 ft width 150 ft
---- / hdg 312

(F) RW 35 length 4832 ft width 150 ft
---- / hdg 357

Location; KTYR
Day. 17 / Time. 20.53 Zulu
* Altimeter: 30.14
* Temperature: 14° c. 57.2°f.
* Wind from: KTY° Speed R kn.
Dewpoint: 12° c.
Visibility: 10 Statute Miles.
Clouds: Overcast 600 ft.

KTYR 172053Z 15011KT 10SM OVC006 14/12 A3014 RMK AO2 SLP203 T01440122 56040


Wind From KTY°
Speed R kn.

 
 
jpsmedia worldairports.se 2020   terms of use